Regional Weather Roundup
Issued by NWS

Home | Current Version | Previous Version | Text Only | Print | Product List | Glossary On
Versions: 1 2 3 4 5 6 7 8 9 10 11 12 13 14 15 16 17 18 19 20 21 22 23 24 25 26 27 28 29 30 31 32 33 34 35 36 37 38 39 40 41 42 43 44 45 46 47 48 49 50
000
ASUS46 KPQR 190810
RWROR

OREGON REGIONAL WEATHER ROUNDUP
NATIONAL WEATHER SERVICE PORTLAND OR
1200 AM PST FRI DEC 19 2014

NOTE: "FAIR" INDICATES FEW OR NO CLOUDS BELOW 12,000 FEET WITH
NO SIGNIFICANT WEATHER AND/OR OBSTRUCTIONS TO VISIBILITY.

ORZ001>013-190900-
NORTHWEST OREGON


CITY           SKY/WX    TMP DP  RH WIND       PRES   REMARKS
ASTORIA        HVY RAIN  49  45  86 S9G20     29.79R FOG
NEWPORT        PTCLDY    46  45  93 S9        29.89F
PORTLAND       LGT RAIN  50  45  83 SW12      29.88R
VANCOUVER WA   LGT RAIN  49  45  86 VRB5      29.87R
SCAPPOOSE      LGT RAIN  45  44  97 SE7       29.83R
HILLSBORO      LGT RAIN  47  45  93 S8        29.83S
AURORA         LGT RAIN  48  45  89 SW3       29.89R
MCMINNVILLE    CLOUDY    48  44  86 SE6       29.86F
SALEM          LGT RAIN  48  44  86 SE7       29.88R
CORVALLIS      CLOUDY    48  45  87 S8        29.90F
EUGENE         CLOUDY    47  44  90 S9        29.91F
$$

ORZ021-028-190900-
SOUTHWEST OREGON


CITY           SKY/WX    TMP DP  RH WIND       PRES   REMARKS
NORTH BEND     CLOUDY    48  48 100 S10       29.94S
BROOKINGS      LGT RAIN  48  48 100 SE6       29.99S
ROSEBURG       RAIN      50  44  80 MISG      29.96R
SEXTON SUMMIT  LGT RAIN  39  39 100 SW10G17   29.92R VSB 1/4 WCI  32
MEDFORD        LGT RAIN  50  43  77 S7        29.96R
$$

ORZ014>016-041-190900-
COLUMBIA GORGE


CITY           SKY/WX    TMP DP  RH WIND       PRES   REMARKS
TROUTDALE      LGT RAIN  45  42  89 E3        29.88R
THE DALLES     CLOUDY    40  38  93 CALM      29.90S FOG
$$

ORZ029>031-041-044-049-050-061>064-502-503-505>511-190900-
EASTERN OREGON


CITY           SKY/WX    TMP DP  RH WIND       PRES   REMARKS
REDMOND        CLOUDY    43  35  73 S6        29.88R
BEND           CLOUDY    41  32  70 SE3       29.89R
PRINEVILLE     CLOUDY    45  34  65 SE14G22   29.88S
KLAMATH FALLS  CLOUDY    40  34  79 S8        29.98F WCI  34
LAKEVIEW       CLOUDY    36  30  80 S6        30.05S WCI  31
HERMISTON      CLOUDY    38  37  97 SE7       29.87F FOG     WCI  33
PENDLETON      CLOUDY    38  37  97 NE5       29.86F FOG     WCI  34
JOHN DAY       CLOUDY    44  32  63 S10G17    29.95R
MEACHAM        LGT RAIN  38  33  82 CALM      29.91S
LA GRANDE      CLOUDY    45  28  53 S16G24    29.95S
BAKER CITY     CLOUDY    38  33  82 E12       30.00  WCI  30
BURNS          CLOUDY    36  31  82 NE6       30.00F WCI  31
ROME             N/A     37  29  72 S6        30.02F WCI  32
ONTARIO        CLOUDY    36  34  92 W3        30.09F
$$



USA.gov is the U.S. government's official web portal to all federal, state and local government web resources and services.